Location: Bois Neuf
(42.7667°N, 0.6333°E)
Time: 21:58:32
(UTC+00:00)

Cosmos 1937 Rocket - Pass Details

Date: 27 September 2020
Orbit: 747 x 779 km, 74.0° (Epoch: 26 October)

Event Time Altitude Azimuth Distance (km) Brightness Sun altitude
Rises 03:34:53 0° 336° (NNW) 3,203 6.7 -25.1°
Reaches altitude 10° 03:37:16 10° 333° (NNW) 2,273 5.9 -24.7°
Enters shadow 03:39:48 29° 324° (NW) 1,355 4.6 -24.3°
Exits shadow 03:47:27 10° 175° (S) 2,290 5.8 -23.0°
Sets 03:49:45 0° 172° (S) 3,182 6.6 -22.6°
